Location: Aloisov
(50.1068°N, 14.5595°E)
Time: 22:42:22
(UTC+00:00)

Daily predictions for brighter satellites

Satellite Brightness Start Highest point End
(mag) Time Altitude Azimuth Time Altitude Azimuth Time Altitude Azimuth
USA 215 3.6 15:26:03 10° ENE 15:32:28 58° NNW 15:38:52 10° W
BREEZE-M DEB (TANK) 2.3 15:33:37 10° W 15:36:08 82° S 15:42:23 10° E
Meteor 1-20 Rocket 4.3 15:31:07 10° N 15:36:28 53° ENE 15:41:48 10° SSE
Cosmos 2297 Rocket 2.5 15:32:58 10° NNW 15:38:39 78° WSW 15:44:18 10° SSE
SMAP 3.5 15:37:32 10° SE 15:41:53 41° ENE 15:46:16 10° N
Cosmos 2084 Rocket 3.9 15:38:44 10° NW 15:42:55 67° SW 15:47:05 10° SSE
NOSS 7 (H) 4.0 15:40:25 10° NW 15:43:20 77° NE 15:46:28 10° SE
JB-3 4.2 15:41:11 10° N 15:44:51 80° WNW 15:48:27 10° SSW
Cosmos 1602 Rocket 3.5 15:40:45 10° N 15:45:07 64° ENE 15:49:25 10° SSE
NOSS 2-2 (E) 3.0 15:42:41 10° SW 15:45:55 61° NW 15:48:55 10° NE
Cosmos 1315 Rocket 4.1 15:42:20 10° SW 15:45:55 37° WNW 15:49:32 10° N
Landsat 7 4.3 15:41:50 10° SE 15:46:03 36° ENE 15:50:18 10° N
Cosmos 1486 Rocket 4.0 15:44:28 10° SSW 15:49:42 85° ESE 15:54:59 10° NNE
SL-16 R/B 2.6 15:44:27 10° NNE 15:50:42 71° ESE 15:56:52 10° S
YAOGAN 1 4.2 15:48:41 10° E 15:50:43 13° ENE 15:52:47 10° NNE
Okean 1-7 Rocket 3.7 15:48:15 10° N 15:52:34 53° ENE 15:56:50 10° SSE
IRIDIUM 103 4.4 15:49:44 10° N 15:54:55 59° E 16:00:04 10° SSE
BREEZE M DEB (TANK) 3.5 15:52:57 10° SW 15:55:13 23° SSE 15:56:58 10° E
Cosmos 405 Rocket 4.5 15:53:58 10° NNW 15:56:49 29° W 15:59:38 10° SSW
Cosmos 1461 2.7 15:54:30 10° SW 15:58:24 90° SE 16:02:15 11° NE
Cosmos 1844 Rocket 4.1 15:57:17 10° N 16:01:04 18° NE 16:04:08 12° ENE
Cosmos 2219 3.7 15:56:17 10° NNW 16:01:37 37° NE 16:06:54 10° ESE
CORIOLIS 4.1 15:57:49 10° SSE 16:03:06 69° ENE 16:08:27 10° N
Cosmos 1980 Rocket 3.2 15:58:42 10° SSE 16:03:23 27° ESE 16:07:35 12° NE
ATLAS CENTAUR R/B 4.5 16:01:54 10° W 16:03:27 13° WSW 16:04:58 10° SW
NOSS 3-2 (A) 3.8 16:01:56 10° WSW 16:07:01 52° NW 16:13:12 10° NE
Aureole 1 Rocket 4.5 16:03:17 10° SSE 16:07:09 26° E 16:11:23 11° NE
USA 307 3.0 16:08:35 10° WSW 16:08:49 13° WSW 16:08:49 13° WSW
Cosmos 1953 Rocket 4.1 16:05:36 10° N 16:09:44 36° ENE 16:13:52 10° SE
NOSS 3-2 (C) 3.2 16:05:03 10° SW 16:10:09 88° SE 16:15:55 12° NE
Cosmos 2263 Rocket 2.3 16:04:38 10° NNW 16:10:13 55° NE 16:15:48 10° SE
Cosmos 1867 4.1 16:06:38 10° NW 16:12:02 64° SW 16:17:24 10° SSE
ARIANE 5 R/B 2.5 16:08:09 10° SSE 16:13:10 62° ENE 16:18:15 10° N
IRIDIUM 106 4.3 16:08:01 10° N 16:13:17 83° E 16:18:30 10° S
IRS-1C 4.1 16:08:43 10° SSE 16:13:57 63° ENE 16:19:13 10° N
Cosmos 2279 Rocket 4.4 16:08:09 10° SSW 16:14:19 65° WNW 16:20:33 10° N
Meteor 1-5 Rocket 4.2 16:09:47 10° N 16:15:03 56° ENE 16:20:27 10° SSE
Cosmos 1825 Rocket 3.4 16:13:23 10° N 16:17:44 69° ENE 16:22:01 10° SSE
Meteor 2-10 4.5 16:15:25 10° N 16:20:30 41° ENE 16:25:44 10° SE
COSMO-SKYMED 1 4.2 16:22:48 15° E 16:22:48 15° E 16:24:43 10° SE
Meteor 1-25 Rocket 4.3 16:16:31 10° NNW 16:22:22 89° W 16:28:08 10° S
Cosmos 2098 Rocket 4.0 16:19:37 10° SSW 16:23:58 55° WNW 16:29:03 10° N
Cosmos 1076 Rocket 3.6 16:20:39 10° N 16:24:54 54° ENE 16:29:07 10° SSE
Lacrosse 4 Rocket 3.8 16:23:40 10° NW 16:25:16 12° NNW 16:26:51 10° N
Cosmos 1655 Rocket 4.0 16:19:14 10° N 16:25:26 61° ENE 16:31:34 10° SSE
SAR-Lupe-4 3.4 16:22:19 10° SSE 16:25:50 69° ENE 16:29:23 10° N
Cosmos 1782 4.3 16:23:45 10° SW 16:27:00 32° WNW 16:30:16 10° N
Cosmos 1933 3.1 16:23:18 10° S 16:27:08 82° E 16:30:59 10° NNE
Meteor 1-28 Rocket 3.6 16:26:13 10° N 16:29:30 53° WNW 16:32:45 10° SSW
USA 81 4.4 16:25:16 10° N 16:30:17 43° ENE 16:35:17 10° SSE
Cosmos 2227 Rocket 2.5 16:24:41 10° NNW 16:30:20 71° WSW 16:35:56 10° SSE
Cosmos 44 Rocket 4.4 16:26:54 10° NNW 16:31:15 27° NNE 16:33:16 21° ENE
Cosmos 2369 Rocket 4.4 16:32:07 10° NW 16:34:30 13° NNW 16:36:54 10° N
SPOT 1/Viking Rocket 3.7 16:32:00 10° SE 16:37:01 50° ENE 16:42:03 10° N
SAR-Lupe-1 4.0 16:34:52 10° SSE 16:38:28 84° ENE 16:42:07 10° NNW
SJ-12 3.6 16:34:55 10° SSE 16:38:42 90° NW 16:42:31 10° NNW
Cosmos 1697 Rocket 2.7 16:36:56 10° SSW 16:42:33 80° WNW 16:47:33 14° NNE
CENTAUR R/B 3.9 16:37:26 10° WNW 16:43:13 33° NNW 16:48:30 16° NE
CZ-2D R/B 2.9 16:40:58 10° S 16:44:06 71° W 16:47:15 10° NNW
Cosmos 1538 Rocket 4.0 16:40:59 10° NNW 16:46:18 86° ENE 16:51:39 10° SSE
NOSS 2-3 (C) 3.0 16:43:10 10° SSW 16:46:35 61° SE 16:47:48 36° ENE
Cosmos 2058 Rocket 3.4 16:42:32 10° SSE 16:46:46 43° E 16:49:16 22° NNE
Cosmos 1606 Rocket 4.0 16:48:47 10° SSW 16:53:09 63° WNW 16:57:35 10° N
UNK 4.3 16:53:50 10° N 16:58:19 56° WNW 17:02:46 10° SSW
Lacrosse 5 rocket 2.2 16:55:22 10° NW 16:58:35 28° N 16:58:51 27° NNE
EXPRESS MD2 3.8 16:56:32 10° SSW 16:58:57 30° SE 16:59:01 30° SE
CZ-4C R/B 4.5 16:53:55 10° NW 17:00:30 39° WSW 17:08:19 10° S
IRS-P3 4.3 16:57:51 10° S 17:03:09 75° WSW 17:08:30 10° NNW
NOSS 2-3 (D) 3.2 17:02:18 10° SW 17:05:58 77° NW 17:07:03 45° NNE
NOSS 2-3 (E) 3.3 17:02:59 10° SW 17:06:38 71° NW 17:07:43 43° NNE
Resurs 1-3 3.5 17:03:01 10° SSE 17:07:14 59° ENE 17:11:29 10° N
CZ-4 R/B 4.2 17:03:57 10° SSE 17:07:54 87° WSW 17:11:53 10° NNW
Nadezhda 2 Rocket 4.3 17:03:06 10° N 17:09:13 65° ENE 17:15:15 10° SSE
Cosmos-2242 2.8 17:05:42 10° S 17:09:54 67° E 17:11:23 38° NNE
MOS 1 Rocket 4.1 17:05:18 10° S 17:10:14 60° W 17:15:27 10° NNW
Radarsat Rocket 4.4 17:02:52 10° SSE 17:10:47 69° ENE 17:17:48 10° NNW
USA 238 DEB 3.4 17:05:14 10° SW 17:11:21 78° SE 17:14:48 31° NE
USA 238 3.4 17:05:20 10° SSW 17:11:28 77° SE 17:14:54 31° NE
Meteor 2-20 4.4 17:05:28 10° S 17:11:38 87° W 17:17:49 10° N
Cosmos 1844 4.1 17:07:17 10° NNW 17:12:29 37° NE 17:12:43 37° NE
Spot 4 Rocket 3.9 17:08:47 10° SSE 17:13:52 74° ENE 17:18:59 10° NNW
SJ-7 4.3 17:10:17 10° SSE 17:14:36 54° NNE 17:17:44 10° N
Cosmos 1898 Rocket 3.4 17:09:30 10° S 17:14:36 66° ESE 17:16:31 38° NE
USA 215 3.6 17:12:07 31° ENE 17:14:57 50° N 17:21:13 10° WNW
Cosmos 1726 Rocket 4.4 17:11:14 10° SSW 17:15:44 52° WNW 17:20:13 10° N
Cosmos 1553 Rocket 4.0 17:10:02 10° S 17:16:05 59° E 17:22:16 10° NNE
Gbstr 26 Del rocket 2.4 17:12:11 10° WSW 17:16:10 85° NNW 17:16:29 74° ENE
Cosmos 372 Rocket 3.8 17:12:08 10° SSW 17:17:17 84° ESE 17:19:40 33° NNE
Cosmos 2082 3.7 17:13:12 10° NNW 17:18:57 89° WSW 17:24:41 10° SSE
Cosmos 2112 Rocket 4.1 17:13:55 10° NNW 17:18:59 49° ENE 17:19:27 48° ENE
IRAS Rocket 4.1 17:14:40 10° SSE 17:20:06 70° ENE 17:25:35 10° NNW
Cosmos 1805 3.0 17:17:25 10° NNW 17:20:47 73° W 17:24:07 10° S
GEOS 3 Rocket 3.8 17:19:09 31° NNE 17:21:48 71° NW 17:27:09 10° SW
YAOGAN 1 2.4 17:21:41 10° SSE 17:25:57 89° W 17:30:14 10° NNW
Cosmos 923 Rocket 3.8 17:22:35 10° NNW 17:27:50 87° ENE 17:32:38 12° SSE
Meteor 2-6 Rocket 4.4 17:23:26 10° SSE 17:28:55 51° E 17:29:22 50° ENE
Cosmos 2227 4.2 17:24:21 10° NNW 17:29:57 56° NE 17:30:31 53° E
Cosmos 1937 Rocket 3.3 17:25:03 10° S 17:30:09 67° ESE 17:30:51 59° ENE
Cosmos 2237 4.4 17:25:20 10° S 17:30:49 49° ESE 17:30:55 49° ESE
Cosmos 1745 Rocket 4.0 17:25:04 10° N 17:31:07 54° ENE 17:37:06 10° SSE
SL-16 R/B 3.6 17:26:56 10° SSE 17:29:26 22° SE 17:29:26 22° SE
Meteor 2-20 Rocket 4.4 17:26:46 10° S 17:32:57 84° W 17:38:57 10° N
SL-16 R/B 4.3 17:28:41 10° N 17:33:45 27° NW 17:38:48 10° WSW
CZ-2D R/B 3.9 17:29:56 10° S 17:34:05 62° WSW 17:38:11 10° NNW
SL-24 R/B - RUBIN 2 4.4 17:30:19 10° SSW 17:34:52 44° SE 17:34:52 44° SE
SKYMED 2 3.7 17:35:14 40° N 17:36:41 71° WNW 17:41:00 10° SSW
Meteor 2-2 Rocket 4.2 17:33:15 10° SSW 17:38:53 82° W 17:42:47 21° N
COSMOS 2455 3.1 17:33:17 10° S 17:38:36 46° SE 17:38:36 46° SE
Okean 1 3.9 17:35:41 10° SSW 17:38:20 45° SW 17:38:20 45° SW
BREEZE-M DEB (TANK) 4.4 17:16:23 10° WNW 17:41:28 76° SSW 17:44:17 39° SE
Cosmos 494 Rocket 4.2 17:38:25 10° NNW 17:42:50 56° NNE 17:42:50 56° NNE
Cosmos 2219 4.1 17:40:24 10° NW 17:45:55 49° WSW 17:51:24 10° S
Cosmos 1844 Rocket 2.6 17:40:28 10° NNW 17:45:50 63° NE 17:45:50 63° NE
Cosmos 1980 Rocket 2.6 17:41:26 10° SW 17:47:01 59° NW 17:49:21 34° N
Aureole 1 Rocket 4.2 17:44:10 10° SW 17:48:51 53° WNW 17:51:47 27° N
Meteor 1-26 Rocket 4.4 17:44:11 10° SSW 17:49:33 66° WNW 17:52:48 24° N
PSLV R/B 3.9 17:46:13 10° S 17:50:11 58° WSW 17:54:13 10° NNW
Cosmos 1386 Rocket 4.3 17:46:01 10° N 17:52:09 89° W 17:58:21 10° S
Cosmos 2263 Rocket 4.1 17:49:00 10° NW 17:53:51 30° WSW 17:58:41 10° SSW
COSMO-SKYMED 1 3.4 17:59:07 43° SW 17:59:07 43° SW 18:02:03 10° SSW
Cosmos 1680 Rocket 3.6 17:54:15 10° NNW 17:59:28 72° WSW 18:00:25 57° S
NOAA 6 4.3 17:57:21 10° S 18:02:24 64° WSW 18:07:28 10° NNW
Cosmos 2369 3.8 17:58:53 10° SW 18:04:36 72° WNW 18:05:20 64° N
Cosmos 967 Rocket 4.3 17:58:53 10° SW 18:05:16 87° SE 18:05:43 79° NE
Cosmos 1943 Rocket 4.5 18:03:55 10° N 18:04:10 11° N 18:04:10 11° N
Cosmos 44 Rocket 4.1 18:08:06 10° NW 18:11:53 50° NW 18:11:53 50° NW
USA 281 4.5 18:28:12 27° N 18:28:12 27° N 18:31:21 10° NNW
Cosmos 2333 Rocket 4.3 18:28:32 10° SSW 18:29:34 16° SSW 18:29:34 16° SSW
CENTAUR R/B 4.0 18:29:37 10° NW 18:35:36 32° N 18:35:36 32° N
USA 215 3.9 18:59:28 48° NW 18:59:28 48° NW 19:04:06 10° WNW
SL-16 R/B 4.5 19:10:05 10° SW 19:11:20 17° SW 19:11:20 17° SW
